EW5035 Weather Reports


time (UTC)temp
C
wind
direction
speed
KPH
gust
KPH
rain 1hr
cm
rain 24hr
cm
rain mn
cm
humidity
%
barometer
mb
20260902065035 17 170 20.9 35.4 0.00 0.00 0.00 52 1007.8
20260902064554 17 171 19.3 38.6 0.00 0.00 0.00 52 1007.6
20260902064034 17 187 20.9 38.6 0.00 0.00 0.00 51 1007.4
20260902063535 18 165 27.4 40.2 0.00 0.00 0.00 51 1007.4
20260902063050 18 161 22.5 40.2 0.00 0.00 0.00 51 1007.4
20260902062537 18 159 20.9 33.8 0.00 0.00 0.00 51 1007.3
20260902062033 18 169 20.9 45.1 0.00 0.00 0.00 50 1007.4
20260902061612 18 167 19.3 45.1 0.00 0.00 0.00 50 1007.5
20260902061035 18 160 20.9 30.6 0.00 0.00 0.00 50 1007.3
20260902060534 18 157 19.3 29.0 0.00 0.00 0.00 50 1007.3
20260902060053 18 155 19.3 32.2 0.00 0.00 0.00 49 1007.2
20260902055536 18 155 17.7 32.2 0.00 0.00 0.00 49 1007.3
20260902055035 18 152 20.9 30.6 0.00 0.00 0.00 49 1007.3
20260902054559 18 170 19.3 27.4 0.00 0.00 0.00 49 1007.2
20260902054036 18 185 11.3 24.1 0.00 0.00 0.00 48 1007.2
20260902053536 18 185 16.1 27.4 0.00 0.00 0.00 47 1007.1
20260902053058 19 186 17.7 29.0 0.00 0.00 0.00 45 1007.0
20260902052534 19 186 17.7 30.6 0.00 0.00 0.00 44 1007.1
20260902052035 20 184 19.3 30.6 0.00 0.00 0.00 43 1007.1
20260902051600 20 188 16.1 25.7 0.00 0.00 0.00 42 1007.1
20260902051031 20 189 14.5 24.1 0.00 0.00 0.00 42 1007.0
20260902050537 20 189 12.9 24.1 0.00 0.00 0.00 41 1007.0
20260902050053 20 189 11.3 24.1 0.00 0.00 0.00 41 1006.9
20260902045534 21 189 14.5 22.5 0.00 0.00 0.00 40 1006.9
20260902045034 21 190 14.5 22.5 0.00 0.00 0.00 40 1006.8
20260902044602 21 192 12.9 24.1 0.00 0.00 0.00 40 1006.8
20260902044035 21 196 9.7 24.1 0.00 0.00 0.00 40 1006.7
20260902043534 22 196 14.5 25.7 0.00 0.00 0.00 39 1006.7
20260902043105 22 196 17.7 25.7 0.00 0.00 0.00 39 1006.7
20260902042534 22 205 9.7 19.3 0.00 0.00 0.00 38 1006.5
20260902042035 22 205 8.0 12.9 0.00 0.00 0.00 39 1006.2
20260902041556 22 205 8.0 12.9 0.00 0.00 0.00 39 1006.2
20260902041032 22 205 6.4 9.7 0.00 0.00 0.00 39 1006.2
20260902040534 22 205 6.4 9.7 0.00 0.00 0.00 39 1006.2
20260902040054 22 205 6.4 9.7 0.00 0.00 0.00 39 1006.2
20260902035538 22 205 6.4 11.3 0.00 0.00 0.00 39 1006.2
20260902035035 22 205 6.4 11.3 0.00 0.00 0.00 39 1006.3
20260902034602 22 205 4.8 11.3 0.00 0.00 0.00 39 1006.2
20260902034038 21 205 6.4 11.3 0.00 0.00 0.00 40 1006.2
20260902033534 21 205 4.8 11.3 0.00 0.00 0.00 41 1006.0
20260902033103 20 0 0.0 4.8 0.00 0.00 0.00 42 1005.9
20260902032535 20 0 1.6 4.8 0.00 0.00 0.00 42 1005.8
20260902032032 20 0 0.0 4.8 0.00 0.00 0.00 43 1005.7
20260902031601 20 0 0.0 4.8 0.00 0.00 0.00 42 1005.7
20260902031035 20 0 0.0 4.8 0.00 0.00 0.00 42 1005.6
20260902030537 20 205 0.0 6.4 0.00 0.00 0.00 41 1005.5
20260902030050 20 205 0.0 6.4 0.00 0.00 0.00 41 1005.7
20260902025535 20 205 1.6 4.8 0.00 0.00 0.00 42 1005.6
20260902025035 21 0 0.0 3.2 0.00 0.00 0.00 41 1005.6
20260902024550 21 0 0.0 3.2 0.00 0.00 0.00 39 1005.6
20260902024035 22 0 0.0 3.2 0.00 0.00 0.00 39 1005.6
20260902023534 22 0 0.0 3.2 0.00 0.00 0.00 38 1005.5
20260902023055 22 0 0.0 3.2 0.00 0.00 0.00 36 1005.3
20260902022535 23 0 0.0 8.0 0.00 0.00 0.00 36 1005.4
20260902022036 24 0 1.6 9.7 0.00 0.00 0.00 34 1005.4
20260902021602 24 205 6.4 11.3 0.00 0.00 0.00 35 1005.5
20260902021035 24 205 8.0 11.3 0.00 0.00 0.00 35 1005.5
20260902020535 24 205 9.7 11.3 0.00 0.00 0.00 34 1005.5
20260902020051 25 205 8.0 9.7 0.00 0.00 0.00 34 1005.5
20260902015534 25 205 8.0 9.7 0.00 0.00 0.00 33 1005.5
20260902015035 25 205 8.0 9.7 0.00 0.00 0.00 33 1005.6
20260902014600 25 205 6.4 9.7 0.00 0.00 0.00 33 1005.7
20260902014035 25 205 6.4 9.7 0.00 0.00 0.00 33 1005.7
20260902013535 25 205 6.4 8.0 0.00 0.00 0.00 33 1005.6
20260902013050 25 205 6.4 9.7 0.00 0.00 0.00 32 1005.7
20260902012535 25 205 4.8 9.7 0.00 0.00 0.00 32 1005.7
20260902012037 26 205 4.8 8.0 0.00 0.00 0.00 31 1005.7
20260902011550 26 205 3.2 8.0 0.00 0.00 0.00 31 1005.7
20260902011035 26 205 3.2 6.4 0.00 0.00 0.00 31 1005.8
20260902010535 26 205 1.6 8.0 0.00 0.00 0.00 31 1005.7
20260902010050 26 205 3.2 9.7 0.00 0.00 0.00 31 1005.7
20260902005534 26 205 3.2 11.3 0.00 0.00 0.00 30 1005.7
20260902005035 26 205 4.8 11.3 0.00 0.00 0.00 30 1005.8
20260902004550 26 205 4.8 9.7 0.00 0.00 0.00 31 1005.7
20260902004035 26 205 4.8 8.0 0.00 0.00 0.00 30 1005.8
20260902003536 26 205 1.6 6.4 0.00 0.00 0.00 31 1005.8
20260902003100 26 0 3.2 11.3 0.00 0.00 0.00 31 1005.7
20260902002534 26 205 6.4 11.3 0.00 0.00 0.00 30 1005.7
20260902002035 27 205 4.8 9.7 0.00 0.00 0.00 30 1005.7
20260902001551 27 0 0.0 12.9 0.00 0.00 0.00 30 1005.7
20260902001035 26 205 4.8 12.9 0.00 0.00 0.00 30 1005.7
20260902000534 26 205 6.4 14.5 0.00 0.00 0.00 30 1005.9
20260902000053 26 205 8.0 14.5 0.00 0.00 0.00 30 1005.9
20260901235536 26 205 6.4 12.9 0.00 0.00 0.00 31 1005.8
20260901235035 26 205 6.4 11.3 0.00 0.00 0.00 31 1005.9
20260901234557 26 205 4.8 11.3 0.00 0.00 0.00 30 1005.8
20260901234037 26 205 1.6 11.3 0.00 0.00 0.00 31 1005.9
20260901233626 26 0 4.8 14.5 0.00 0.00 0.00 32 1006.0
20260901233105 26 205 8.0 14.5 0.00 0.00 0.00 32 1006.0
20260901232533 26 205 3.2 9.7 0.00 0.00 0.00 31 1006.0
20260901232037 26 205 4.8 9.7 0.00 0.00 0.00 32 1006.0
20260901231551 26 205 1.6 9.7 0.00 0.00 0.00 32 1006.0
20260901231034 25 0 3.2 11.3 0.00 0.00 0.00 32 1006.0
20260901230536 25 205 6.4 14.5 0.00 0.00 0.00 32 1006.2
20260901230050 25 205 8.0 14.5 0.00 0.00 0.00 33 1006.3
20260901225534 25 205 4.8 12.9 0.00 0.00 0.00 33 1006.4
20260901225035 25 205 8.0 12.9 0.00 0.00 0.00 33 1006.4
20260901224559 25 205 6.4 12.9 0.00 0.00 0.00 34 1006.4
20260901224034 25 205 6.4 12.9 0.00 0.00 0.00 34 1006.5
20260901223535 25 205 4.8 11.3 0.00 0.00 0.00 36 1006.5
20260901223055 25 205 3.2 14.5 0.00 0.00 0.00 35 1006.5
20260901222536 25 205 6.4 14.5 0.00 0.00 0.00 35 1006.7
20260901222035 25 205 4.8 14.5 0.00 0.00 0.00 36 1006.7
20260901221617 25 205 3.2 11.3 0.00 0.00 0.00 37 1006.8
20260901221035 24 205 4.8 12.9 0.00 0.00 0.00 37 1006.8
20260901220534 24 205 8.0 12.9 0.00 0.00 0.00 37 1006.8
20260901220118 24 205 8.0 16.1 0.00 0.00 0.00 37 1006.8
20260901215535 24 205 6.4 16.1 0.00 0.00 0.00 37 1006.8
20260901215034 24 205 6.4 17.7 0.00 0.00 0.00 37 1006.9
20260901214559 24 205 9.7 19.3 0.00 0.00 0.00 37 1007.0
20260901214034 24 205 11.3 19.3 0.00 0.00 0.00 36 1007.1
20260901213535 23 205 9.7 19.3 0.00 0.00 0.00 39 1007.1
20260901213110 23 205 12.9 19.3 0.00 0.00 0.00 39 1007.2
20260901212535 23 205 12.9 19.3 0.00 0.00 0.00 38 1007.2
20260901212034 23 205 12.9 19.3 0.00 0.00 0.00 40 1007.1
20260901211554 23 200 11.3 16.1 0.00 0.00 0.00 41 1007.1
20260901211034 23 200 8.0 14.5 0.00 0.00 0.00 41 1007.2
20260901210535 22 200 6.4 17.7 0.00 0.00 0.00 44 1007.2
20260901210100 21 200 9.7 19.3 0.00 0.00 0.00 47 1007.2
20260901205538 21 200 12.9 19.3 0.00 0.00 0.00 46 1007.7
20260901205031 21 200 12.9 22.5 0.00 0.00 0.00 45 1007.7
20260901204600 21 200 11.3 22.5 0.00 0.00 0.00 45 1007.6
20260901204033 21 200 16.1 22.5 0.00 0.00 0.00 45 1007.8
20260901203534 21 200 14.5 17.7 0.00 0.00 0.00 47 1007.7
20260901203102 21 200 12.9 17.7 0.00 0.00 0.00 45 1007.5
20260901202534 22 200 14.5 17.7 0.00 0.00 0.00 43 1007.7
20260901202037 22 200 11.3 17.7 0.00 0.00 0.00 42 1007.6
20260901201552 22 200 4.8 16.1 0.00 0.00 0.00 42 1007.3
20260901201035 22 200 8.0 16.1 0.00 0.00 0.00 41 1007.0
20260901200534 22 200 11.3 16.1 0.00 0.00 0.00 41 1007.0
20260901200054 22 200 8.0 12.9 0.00 0.00 0.00 41 1007.0
20260901195539 22 200 8.0 17.7 0.00 0.00 0.00 41 1007.2
20260901195038 22 200 6.4 24.1 0.00 0.00 0.00 42 1007.2
20260901194550 22 200 12.9 27.4 0.00 0.00 0.00 41 1007.3
20260901194035 22 190 16.1 27.4 0.00 0.00 0.00 42 1007.9
20260901193536 22 190 17.7 27.4 0.00 0.00 0.00 41 1008.0
20260901193100 21 207 20.9 27.4 0.00 0.00 0.00 42 1008.1
20260901192539 21 208 14.5 22.5 0.00 0.00 0.00 42 1008.3
20260901192037 21 209 12.9 22.5 0.00 0.00 0.00 43 1008.2
20260901191558 21 209 12.9 22.5 0.00 0.00 0.00 44 1008.3
20260901191034 21 209 12.9 20.9 0.00 0.00 0.00 45 1008.4
20260901190538 21 209 12.9 24.1 0.00 0.00 0.00 45 1008.3
20260901190049 21 209 16.1 24.1 0.00 0.00 0.00 45 1008.3
20260901185537 20 209 14.5 20.9 0.00 0.00 0.00 46 1008.3
20260901185036 20 209 12.9 22.5 0.00 0.00 0.00 46 1008.5
20260901184547 20 209 14.5 24.1 0.00 0.00 0.00 46 1008.3
20260901184036 20 209 14.5 24.1 0.00 0.00 0.00 45 1008.2
20260901183535 20 209 12.9 25.7 0.00 0.00 0.00 45 1008.1
20260901183054 20 209 17.7 25.7 0.00 0.00 0.00 44 1008.1
20260901182535 21 209 19.3 25.7 0.00 0.00 0.00 43 1008.1
20260901182035 21 221 16.1 25.7 0.00 0.00 0.00 44 1008.0
20260901181550 21 221 16.1 27.4 0.00 0.00 0.00 45 1008.1
20260901181034 21 217 19.3 29.0 0.00 0.00 0.00 45 1008.2
20260901180534 21 217 19.3 30.6 0.00 0.00 0.00 44 1008.0
20260901180047 21 217 20.9 30.6 0.00 0.00 0.00 44 1008.0
20260901175534 21 225 20.9 30.6 0.00 0.00 0.00 43 1007.9
20260901175035 21 225 19.3 27.4 0.00 0.00 0.00 43 1008.1
20260901174556 21 225 19.3 29.0 0.00 0.00 0.00 42 1008.0
20260901174035 22 209 20.9 30.6 0.00 0.00 0.00 38 1008.1
20260901173535 22 226 20.9 30.6 0.00 0.00 0.00 38 1007.9
20260901173052 22 232 16.1 22.5 0.00 0.00 0.00 38 1007.5
20260901172538 22 218 11.3 19.3 0.00 0.00 0.00 39 1007.6
20260901172031 21 218 12.9 19.3 0.00 0.00 0.00 40 1007.6
20260901171606 21 216 11.3 24.1 0.00 0.00 0.00 39 1007.6
20260901171032 21 215 14.5 24.1 0.00 0.00 0.00 39 1007.6
20260901170531 21 213 14.5 24.1 0.00 0.00 0.00 39 1007.6
20260901170052 21 221 17.7 24.1 0.00 0.00 0.00 40 1007.6
20260901165530 21 204 16.1 24.1 0.00 0.00 0.00 40 1007.8
20260901165033 21 207 16.1 29.0 0.00 0.00 0.00 39 1007.6
20260901164551 21 207 17.7 29.0 0.00 0.00 0.00 40 1007.7
20260901164030 21 206 19.3 29.0 0.00 0.00 0.00 40 1007.8
20260901163530 20 206 20.9 30.6 0.00 0.00 0.00 40 1007.8
20260901163105 20 207 20.9 30.6 0.00 0.00 0.00 41 1008.0
20260901162532 20 216 17.7 30.6 0.00 0.00 0.00 40 1008.0
20260901162031 20 216 17.7 32.2 0.00 0.00 0.00 39 1007.9
20260901161555 20 219 19.3 32.2 0.00 0.00 0.00 40 1007.8
20260901161034 20 192 17.7 27.4 0.00 0.00 0.00 41 1007.7
20260901160530 20 191 17.7 32.2 0.00 0.00 0.00 42 1007.6
20260901160054 19 186 20.9 32.2 0.00 0.00 0.00 44 1007.6
20260901155531 18 169 19.3 27.4 0.00 0.00 0.00 45 1007.7
20260901155031 18 157 17.7 27.4 0.00 0.00 0.00 46 1007.6
20260901154549 18 143 16.1 22.5 0.00 0.00 0.00 49 1007.6
20260901154031 17 136 14.5 22.5 0.00 0.00 0.00 50 1007.5
20260901153531 17 136 12.9 22.5 0.00 0.00 0.00 50 1007.5
20260901153103 18 136 11.3 22.5 0.00 0.00 0.00 49 1007.5
20260901152531 18 132 16.1 24.1 0.00 0.00 0.00 48 1007.6
20260901152031 17 125 14.5 24.1 0.00 0.00 0.00 49 1007.5
20260901151557 17 122 16.1 24.1 0.00 0.00 0.00 48 1007.5
20260901151031 17 94 12.9 20.9 0.00 0.00 0.00 48 1007.3
20260901150531 17 93 14.5 20.9 0.00 0.00 0.00 47 1007.5
20260901150050 17 86 8.0 16.1 0.00 0.00 0.00 48 1007.4
20260901145535 17 63 9.7 16.1 0.00 0.00 0.00 49 1007.3
20260901145031 16 63 8.0 16.1 0.00 0.00 0.00 50 1007.3
20260901144551 16 63 4.8 9.7 0.00 0.00 0.00 51 1007.3
20260901144031 15 63 4.8 9.7 0.00 0.00 0.00 52 1007.2
20260901143531 15 0 0.0 0.0 0.00 0.00 0.00 53 1006.9
20260901143053 15 0 0.0 4.8 0.00 0.00 0.00 53 1007.0
20260901142532 15 0 0.0 8.0 0.00 0.00 0.00 55 1006.9
20260901142031 15 63 3.2 8.0 0.00 0.00 0.00 56 1007.0
20260901141557 14 63 4.8 8.0 0.00 0.00 0.00 56 1006.9
20260901141034 14 0 1.6 6.4 0.00 0.00 0.00 57 1006.8
20260901140535 13 63 3.2 6.4 0.00 0.00 0.00 57 1006.7
20260901140051 13 63 0.0 4.8 0.00 0.00 0.00 56 1006.7
20260901135537 13 63 1.6 6.4 0.00 0.00 0.00 55 1006.7
20260901135036 14 0 0.0 6.4 0.00 0.00 0.00 55 1006.8
20260901134551 14 63 3.2 6.4 0.00 0.00 0.00 55 1006.7
20260901134040 14 63 3.2 6.4 0.00 0.00 0.00 55 1006.7
20260901133535 14 63 3.2 6.4 0.00 0.00 0.00 56 1006.6
20260901133050 14 63 1.6 6.4 0.00 0.00 0.00 54 1006.7
20260901132535 14 0 0.0 1.6 0.00 0.00 0.00 54 1006.7
20260901132035 14 0 0.0 1.6 0.00 0.00 0.00 53 1006.7
20260901131600 14 0 0.0 3.2 0.00 0.00 0.00 53 1006.6
20260901131035 14 0 0.0 3.2 0.00 0.00 0.00 53 1006.7
20260901130535 14 63 0.0 6.4 0.00 0.00 0.00 52 1006.7
20260901130052 15 0 1.6 6.4 0.00 0.00 0.00 52 1006.7
20260901125538 14 63 3.2 6.4 0.00 0.00 0.00 54 1006.8
20260901125035 13 0 0.0 4.8 0.00 0.00 0.00 53 1006.7
20260901124550 13 63 3.2 6.4 0.00 0.00 0.00 51 1006.5
20260901124035 13 0 0.0 6.4 0.00 0.00 0.00 52 1006.5
20260901123532 13 63 3.2 6.4 0.00 0.00 0.00 54 1006.5
20260901123104 13 63 0.0 6.4 0.00 0.00 0.00 50 1006.6
20260901122535 13 63 1.6 4.8 0.00 0.00 0.00 51 1006.7
20260901122036 13 0 0.0 0.0 0.00 0.00 0.00 51 1006.8
20260901121551 12 0 0.0 0.0 0.00 0.00 0.00 52 1006.7
20260901121035 12 0 0.0 3.2 0.00 0.00 0.00 51 1006.8
20260901120534 12 0 0.0 3.2 0.00 0.00 0.00 52 1006.7
20260901120051 12 0 0.0 0.0 0.00 0.00 0.00 52 1006.7
20260901115536 12 0 0.0 0.0 0.00 0.00 0.00 52 1006.7
20260901115035 12 0 0.0 3.2 0.00 0.00 0.00 49 1006.7
20260901114548 12 0 0.0 3.2 0.00 0.00 0.00 51 1006.7
20260901114038 12 0 0.0 1.6 0.00 0.00 0.00 50 1006.7
20260901113537 12 0 0.0 3.2 0.00 0.00 0.00 49 1006.7
20260901113100 12 0 0.0 3.2 0.00 0.00 0.00 48 1006.7
20260901112535 12 0 0.0 3.2 0.00 0.00 0.00 46 1006.7
20260901112038 12 0 0.0 4.8 0.00 0.00 0.00 46 1006.7
20260901111552 13 0 1.6 4.8 0.00 0.00 0.00 44 1006.8
20260901111035 13 63 1.6 4.8 0.00 0.00 0.00 46 1006.8
20260901110535 13 0 0.0 0.0 0.00 0.00 0.00 43 1006.9
20260901105536 13 0 0.0 3.2 0.00 0.00 0.00 43 1006.9
20260901105038 13 0 0.0 3.2 0.00 0.00 0.00 44 1006.9
20260901104602 13 0 0.0 3.2 0.00 0.00 0.00 43 1007.0
20260901104035 13 0 0.0 3.2 0.00 0.00 0.00 42 1007.0
20260901103535 13 0 0.0 4.8 0.00 0.00 0.00 43 1007.0
20260901103054 13 63 0.0 4.8 0.00 0.00 0.00 42 1006.9
20260901102535 13 63 1.6 4.8 0.00 0.00 0.00 42 1007.0
20260901102035 13 0 0.0 3.2 0.00 0.00 0.00 41 1006.9
20260901101551 13 0 0.0 0.0 0.00 0.00 0.00 41 1006.8
20260901101034 13 0 0.0 1.6 0.00 0.00 0.00 40 1006.7
20260901100534 13 0 0.0 4.8 0.00 0.00 0.00 40 1006.7
20260901100051 13 0 0.0 4.8 0.00 0.00 0.00 39 1006.6
20260901095535 13 63 1.6 3.2 0.00 0.00 0.00 38 1006.6
20260901095035 14 0 0.0 3.2 0.00 0.00 0.00 38 1006.8
20260901094550 14 0 0.0 3.2 0.00 0.00 0.00 37 1006.8
20260901094038 15 0 0.0 1.6 0.00 0.00 0.00 37 1006.9
20260901093536 15 0 0.0 1.6 0.00 0.00 0.00 36 1006.9
20260901093056 15 0 0.0 1.6 0.00 0.00 0.00 36 1006.7
20260901092538 15 0 0.0 3.2 0.00 0.00 0.00 35 1006.9
20260901092035 16 0 0.0 3.2 0.00 0.00 0.00 34 1006.9
20260901091550 16 0 0.0 4.8 0.00 0.00 0.00 34 1006.9
20260901091038 16 0 0.0 4.8 0.00 0.00 0.00 34 1007.0
20260901090536 16 0 0.0 0.0 0.00 0.00 0.00 34 1006.9
20260901090050 16 0 0.0 4.8 0.00 0.00 0.00 33 1007.0
20260901085535 17 0 0.0 9.7 0.00 0.00 0.00 33 1006.9
20260901085035 16 0 1.6 9.7 0.00 0.00 0.00 33 1006.8
20260901084602 17 63 3.2 9.7 0.00 0.00 0.00 32 1006.9
20260901084038 17 63 6.4 9.7 0.00 0.00 0.00 31 1006.8
20260901083535 18 63 3.2 6.4 0.00 0.00 0.00 30 1006.9
20260901083052 18 63 1.6 16.1 0.00 0.00 0.00 30 1006.9
20260901082535 18 63 4.8 19.3 0.00 0.00 0.00 30 1006.8
20260901082034 18 63 4.8 19.3 0.00 0.00 0.00 30 1006.9
20260901081550 18 63 9.7 19.3 0.00 0.00 0.00 30 1006.9
20260901081048 18 0 1.6 9.7 0.00 0.00 0.00 30 1006.7
20260901080535 18 40 4.8 9.7 0.00 0.00 0.00 30 1006.6
20260901075536 18 40 4.8 9.7 0.00 0.00 0.00 30 1006.7
20260901075036 18 40 1.6 11.3 0.00 0.00 0.00 29 1006.6
20260901074558 18 40 3.2 11.3 0.00 0.00 0.00 29 1006.6
20260901074038 18 40 6.4 9.7 0.00 0.00 0.00 29 1006.6
20260901073535 18 40 6.4 9.7 0.00 0.00 0.00 29 1006.8
20260901073102 18 40 3.2 6.4 0.00 0.00 0.00 29 1006.7
20260901072535 18 40 3.2 6.4 0.00 0.00 0.00 29 1006.8
20260901072035 18 40 1.6 6.4 0.00 0.00 0.00 29 1007.0
20260901071559 18 0 0.0 0.0 0.00 0.00 0.00 30 1007.0
20260901071034 18 0 0.0 0.0 0.00 0.00 0.00 30 1006.9
20260901070535 18 0 0.0 1.6 0.00 0.00 0.00 30 1007.1
20260901070050 18 0 0.0 3.2 0.00 0.00 0.00 29 1007.0
20260901065536 18 0 0.0 3.2 0.00 0.00 0.00 30 1007.1